Location: Bratislava
(48.1500°N, 17.1167°E)
Time: 17:34:38
(UTC+01:00)

ISS - Visible Passes

Search period start: 17 January 2020 00:00
Search period end: 27 January 2020 00:00
Orbit: 415 x 421 km, 51.6° (Epoch: 18 January)

Date Brightness Start Highest point End Pass type
(mag) Time Alt. Az. Time Alt. Az. Time Alt. Az.
20 Jan -1.6 18:25:30 10° S 18:26:50 16° SSE 18:26:50 16° SSE visible
21 Jan -1.4 17:38:55 10° SSE 17:40:05 11° SE 17:41:08 10° ESE visible
21 Jan -1.3 19:12:58 10° SW 19:14:05 19° SW 19:14:05 19° SW visible
22 Jan -3.0 18:25:11 10° SW 18:28:17 39° SSE 18:28:17 39° SSE visible
23 Jan -2.4 17:37:36 10° SSW 17:40:27 26° SE 17:42:24 16° E visible
23 Jan -1.6 19:13:39 10° WSW 19:15:21 27° W 19:15:21 27° W visible
24 Jan -3.9 18:25:37 10° WSW 18:28:59 82° SSE 18:29:24 65° E visible
25 Jan -3.5 17:37:40 10° SW 17:40:59 57° SSE 17:43:24 17° ENE visible
25 Jan -1.7 19:14:32 10° W 19:16:20 27° WNW 19:16:20 27° WNW visible
26 Jan -3.5 18:26:22 10° W 18:29:42 59° NNW 18:30:18 49° NNE visible
